TimeCST,TemperatureF,Dew PointF,Humidity,Sea Level PressureIn,VisibilityMPH,Wind Direction,Wind SpeedMPH,Gust SpeedMPH,PrecipitationIn,Events,Conditions,WindDirDegrees,DateUTC
12:54 AM,17.1,5.0,59,30.24,10.0,WSW,6.9,-,N/A,,Clear,250,2012-02-09 06:54:00
1:54 AM,16.0,5.0,62,30.22,10.0,WSW,6.9,-,N/A,,Clear,250,2012-02-09 07:54:00
2:54 AM,16.0,5.0,62,30.20,10.0,West,6.9,-,N/A,,Clear,270,2012-02-09 08:54:00
3:54 AM,15.1,3.9,61,30.19,10.0,West,4.6,-,N/A,,Clear,270,2012-02-09 09:54:00
4:54 AM,15.1,5.0,64,30.18,10.0,WSW,5.8,-,N/A,,Clear,250,2012-02-09 10:54:00
5:54 AM,12.0,3.9,70,30.17,10.0,SW,4.6,-,N/A,,Clear,220,2012-02-09 11:54:00
6:54 AM,12.0,3.9,70,30.17,10.0,SW,3.5,-,N/A,,Clear,230,2012-02-09 12:54:00
7:54 AM,16.0,6.1,65,30.16,10.0,West,6.9,-,N/A,,Clear,270,2012-02-09 13:54:00
8:54 AM,19.9,9.0,62,30.15,10.0,WSW,6.9,-,N/A,,Clear,240,2012-02-09 14:54:00
9:54 AM,23.0,10.9,60,30.14,10.0,West,11.5,-,N/A,,Clear,270,2012-02-09 15:54:00
10:54 AM,26.1,12.9,58,30.12,10.0,WSW,11.5,18.4,N/A,,Clear,250,2012-02-09 16:54:00
11:54 AM,28.9,14.0,54,30.09,10.0,WSW,10.4,-,N/A,,Clear,250,2012-02-09 17:54:00
12:54 PM,32.0,14.0,48,30.05,10.0,WSW,11.5,17.3,N/A,,Clear,250,2012-02-09 18:54:00
1:54 PM,32.0,12.0,44,30.02,10.0,WSW,13.8,19.6,N/A,,Clear,250,2012-02-09 19:54:00
2:54 PM,33.1,12.9,43,30.00,10.0,SW,16.1,-,N/A,,Clear,230,2012-02-09 20:54:00
3:54 PM,32.0,12.9,45,29.98,10.0,WSW,15.0,21.9,N/A,,Clear,250,2012-02-09 21:54:00
4:54 PM,30.9,15.1,52,29.98,10.0,SW,8.1,16.1,N/A,,Clear,230,2012-02-09 22:54:00
5:54 PM,28.0,16.0,61,29.99,10.0,SW,12.7,20.7,N/A,,Clear,230,2012-02-09 23:54:00
6:54 PM,26.1,16.0,66,30.01,10.0,WSW,12.7,20.7,N/A,,Clear,240,2012-02-10 00:54:00
7:31 PM,24.8,17.6,74,29.93,10.0,SW,11.5,-,N/A,,Mostly Cloudy,230,2012-02-10 01:31:00
7:54 PM,25.0,17.1,72,30.00,10.0,SW,8.1,16.1,N/A,,Mostly Cloudy,230,2012-02-10 01:54:00
8:54 PM,26.1,19.0,75,29.99,10.0,SW,11.5,-,N/A,,Overcast,220,2012-02-10 02:54:00
9:29 PM,26.6,19.4,74,29.91,10.0,SSW,10.4,-,N/A,,Overcast,210,2012-02-10 03:29:00
9:54 PM,26.1,19.0,75,29.96,10.0,SSW,9.2,-,N/A,,Overcast,210,2012-02-10 03:54:00
10:54 PM,25.0,19.0,78,29.94,9.0,SSW,8.1,-,N/A,,Mostly Cloudy,210,2012-02-10 04:54:00
11:54 PM,25.0,19.0,78,29.93,9.0,SSW,6.9,-,N/A,,Overcast,210,2012-02-10 05:54:00